Погода Фурманово

Погода Фурманово : погода сейчас, прогноз погоды и архив. Всё, что Вы хотите узнать о погоде Фурманово!

Поиск расширенной информации на нашем сайте:

Другие новости

Новости СМИ2

Главная страница сайта

Новости сайта

03.07.2017

Напоминаем, что на нашем специализированном сайте Метеоцентр.Азия вы можете получить высокодетализированные автоматические прогнозы погоды по пунктам России, СНГ и мира в авиационном формате (включающие направление и скорость ветра, видимость, явления погоды, количество и форму облачности, нижнюю и верхнюю границу облачности).


Погода Фурманово - сегодня

Время (UTC), дата Ветер
(°,м/с) 
Видим.   Явления Облачность Т
(°С)
Тd
(°С)
f(%) Тe
(°С)
Pmin
(гПа)
dP
(гПа)
Po
(мм)
O2
(г/м3)
Тmin Tmax R s Состояние
почвы
18 13.12.17 160 (Ю) н/о    10/10 600 м 
[Sc]
-1.7 -3.8 86 -6  1029.2  0.8  771  313    +0.7     
21 13.12.17 160 (Ю) н/о    10/10 600 м 
[Sc]
-2.1 -4.3 85 -7  1029.8  0.6  772  314           
00 14.12.17 160 (Ю) н/о    10/10 300 м 
[Frnb]
-2.2 -5.1 80 -7  1030.2  0.4  772  314           
03 14.12.17 160 (Ю) н/о    10/10 300 м 
[Frnb]
-3.3 -5.8 83 -8  1031.1  0.9  773  316  -3.4      11  равномерный
мокрый или
старый снег
100% 
06 14.12.17 140 (ЮВ) 20000 м    10/10 600 м 
[Sc]
-4.2 -6.5 84 -8  1031.8  0.7  773  317  -3.4         
09 14.12.17 140 (ЮВ) 20000 м    9/8 600 м средняя 
[Sc|Ac cuf]
-5 -8.3 78 -9  1031.8  773  318           
12 14.12.17 140 (ЮВ) 20000 м    10/6 600 м средняя 
[Sc|Ac As]
-7.1 -10.5 77 -12  1032.2  0.3  773  321           
15 14.12.17 140 (ЮВ) н/о    10/6 600 м средняя 
[Sc|Ac As]
-8.6 -12 76 -14  1031.5  -0.7  773  323    -3.3       
18 14.12.17 140 (ЮВ) н/о    9/0 средняя 
[Ac lent]
-8.8 -12.2 76 -14  1031.6  0.1  773  323    -3.3       
21 14.12.17 140 (ЮВ) н/о    ясно 
-10.6 -13.4 80 -16  1031.2  -0.4  773  325           
00 15.12.17 140 (ЮВ) н/о    ясно 
-11.9 -14.6 80 -17  1031.2  773  327           
03 15.12.17 140 (ЮВ) н/о    ясно 
-13 -15.7 80 -18  1031.2  773  328  -13.2      11  равномерный
сухой снег
100% 
06 15.12.17 140 (ЮВ) 20000 м    5/0 средняя, верхняя 
[Ac lent|Ci fib]
-12.7 -15.4 80 -18  1032.2  773  328  -13.2         
09 15.12.17 140 (ЮВ) 20000 м    5/0 средняя, верхняя 
[Ac lent|Ci fib]
-9.6 -13.2 75 -14  1031.6  -0.6  773  324           
12 15.12.17 140 (ЮВ) 20000 м    8/0 средняя, верхняя 
[Ac lent|Cc]
-10.1 -13.7 75 -15  1031.6  773  325           
15 15.12.17 140 (ЮВ) н/о    5/0 средняя, верхняя 
[Ac trans|Ci fib]
-11.6 -14.4 80 -16  1032  0.4  773  327    -9       
18 15.12.17 140 (ЮВ) н/о    5/0 средняя 
[Ac trans]
-11 -13.8 80 -15  1031.8  -0.2  773  326    -9       
21 15.12.17 140 (ЮВ) н/о    4/0 средняя 
[Ac trans]
-11.5 -14.3 80 -15  1031.8  773  327           
00 16.12.17 140 (ЮВ) н/о    8/0 средняя 
[Ac As]
-11 -13.8 80 -16  1031.8  773  326           
03 16.12.17 140 (ЮВ) н/о    8/0 средняя 
[Ac As]
-11.1 -13.9 80 -15  1032.4  0.6  773  326  -11.6      11  равномерный
мокрый или
старый снег
100% 
06 16.12.17 140 (ЮВ) 20000 м    9/0 средняя, верхняя 
[Ac cast|Cs]
-12.8 -15.5 80 -17  1033.3  0.9  774  329  -11.6         
09 16.12.17 140 (ЮВ) 20000 м    9/0 средняя, верхняя 
[Ac cast|Cs]
-10.6 -14.2 75 -15  1032.4  -0.9  773  326           
12 16.12.17 140 (ЮВ) 20000 м    6/0 верхняя 
[Cs]
-9.4 -13.5 72 -12  1033.2  0.8  774  324           
15 16.12.17 140 (ЮВ) н/о    3/0 верхняя 
[Cs]
-12.5 -15.2 80 -17  1033.7  0.5  774  328    -8.8       
18 16.12.17 140 (ЮВ) н/о    ясно 
-13.7 -15.7 85 -18  1034.4  0.7  775  330    -8.8       
Время (UTC), дата Ветер
(°,м/с) 
Видим.   Явления Облачность Т
(°С)
Тd
(°С)
f(%) Тe
(°С)
Pmin
(гПа)
dP
(гПа)
Po
(мм)
O2
(г/м3)
Тmin Tmax R s Состояние
почвы

Для получения пояснительной информации подведите курсор к названию столбца.

ПОГОДА Фурманово - архив

Всё, что Вы хотите узнать о погоде Фурманово - удобно и подробно!

Выберите нужную дату (начиная с 1 января 2015* года) и нажмите кнопку "Найти".
Будут отображены архивные сводки погоды по пункту Фурманово, начиная с указанной даты.


Отображать данные в формате CSV (для использования в таблицах Excel)


Внимание! Наш архив погоды предназначен исключительно для личного некоммерческого использования в познавательных целях. Если Вам необходимы официальные справки о состоянии погоды (для производственных, юридических, коммерческих и т.п. целей), обращайтесь в органы Росгидромета.

*Примечание: данная дата относится к архиву по метеостанциям СССР (Россия, СНГ, Балтия).
Архив по метеостанциям Зарубежной Европы и Азии (кроме Китая) хранится 10 дней, по другим регионам земного шара (Китай, Африка, Америка, Австралия, Океания) - 1 день.

Фурманово - район местоположения метеостанции


Название, широта, долгота, высота метеостанции:
Фурманово 49.7°ш. 49.5°д. 10 м над ур. моря [Казахстан]

Дополнительная информация

В oтличие oт бoльшинства пoгoдных сайтoв мы публикуем пoдрoбную метеoинфoрмацию в детальнoм прoфессиoнальнoм фoрмате.

Характеристики температуры и влажнoсти вoздуха измеряются на высoте 2 м в тени вдали oт зданий и деревьев.
Скoрoсть ветра измеряется на высoте 10 м (на урoвне рoста челoвека скoрoсть ветра ниже в 1.5-2 раза). Если метеoстанция нахoдится в гoрoде или в лесу, тo скoрoсть ветра занижена на 2-4 м/с пo сравнению с oткрытым местoм. Скoрoсть ветра над акватoриями крупных рек и oзёр, а также на вершинах хoлмoв на 2-5 м/с выше, чем в oбычных услoвиях.
Атмoсфернoе давление в разных тoчках местнoсти мoжет значительнo oтличаться oт давления на метеoстанции, в зависимoсти oт услoвий рельефа (при пoдъёме на 10 м давление пoнижается примернo на 1 мм рт.ст.).